TimeCDT,TemperatureF,Dew PointF,Humidity,Sea Level PressureIn,VisibilityMPH,Wind Direction,Wind SpeedMPH,Gust SpeedMPH,PrecipitationIn,Events,Conditions,WindDirDegrees,DateUTC
12:53 AM,57.0,54.0,89,30.00,10.0,West,8.1,-,N/A,,Clear,280,2013-07-10 05:53:00
1:53 AM,57.0,54.0,89,30.00,8.0,West,5.8,-,N/A,,Clear,280,2013-07-10 06:53:00
2:53 AM,57.0,54.0,89,30.01,7.0,West,6.9,-,N/A,,Clear,270,2013-07-10 07:53:00
3:53 AM,57.0,54.0,89,30.01,7.0,West,8.1,-,N/A,,Clear,270,2013-07-10 08:53:00
4:53 AM,55.9,53.1,90,30.01,7.0,West,6.9,-,N/A,,Clear,280,2013-07-10 09:53:00
5:53 AM,55.0,53.1,93,30.03,5.0,West,5.8,-,N/A,,Clear,280,2013-07-10 10:53:00
6:53 AM,57.0,54.0,89,30.04,6.0,West,6.9,-,N/A,,Clear,280,2013-07-10 11:53:00
7:53 AM,62.1,55.9,80,30.04,7.0,West,8.1,-,N/A,,Clear,280,2013-07-10 12:53:00
8:53 AM,66.9,55.9,68,30.04,8.0,WNW,6.9,-,N/A,,Clear,290,2013-07-10 13:53:00
9:53 AM,70.0,55.9,61,30.03,9.0,WNW,10.4,-,N/A,,Clear,300,2013-07-10 14:53:00
10:53 AM,73.0,57.0,57,30.03,9.0,West,8.1,-,N/A,,Clear,270,2013-07-10 15:53:00
11:53 AM,75.0,55.0,50,30.03,10.0,West,11.5,-,N/A,,Partly Cloudy,270,2013-07-10 16:53:00
12:53 PM,75.9,54.0,46,30.02,10.0,West,9.2,17.3,N/A,,Partly Cloudy,280,2013-07-10 17:53:00
1:53 PM,78.1,54.0,43,30.01,10.0,NW,9.2,-,N/A,,Partly Cloudy,320,2013-07-10 18:53:00
2:53 PM,78.1,54.0,43,29.99,10.0,WNW,9.2,-,N/A,,Partly Cloudy,290,2013-07-10 19:53:00
3:53 PM,79.0,54.0,42,29.98,10.0,WNW,6.9,-,N/A,,Partly Cloudy,300,2013-07-10 20:53:00
4:53 PM,79.0,54.0,42,29.96,10.0,West,6.9,-,N/A,,Partly Cloudy,270,2013-07-10 21:53:00
5:53 PM,79.0,53.1,40,29.96,10.0,WNW,4.6,-,N/A,,Partly Cloudy,290,2013-07-10 22:53:00
6:53 PM,79.0,55.0,44,29.95,10.0,WNW,6.9,-,N/A,,Partly Cloudy,300,2013-07-10 23:53:00
7:53 PM,77.0,59.0,54,29.94,10.0,Calm,Calm,-,N/A,,Clear,0,2013-07-11 00:53:00
8:53 PM,72.0,60.1,66,29.95,10.0,SW,3.5,-,N/A,,Clear,230,2013-07-11 01:53:00
9:53 PM,66.0,59.0,78,29.96,9.0,South,4.6,-,N/A,,Clear,190,2013-07-11 02:53:00
10:53 PM,64.9,57.9,78,29.97,10.0,South,5.8,-,N/A,,Clear,190,2013-07-11 03:53:00
11:53 PM,63.0,55.9,78,29.97,10.0,South,5.8,-,N/A,,Clear,190,2013-07-11 04:53:00